Home   Weather   Ratingen   Past weeks

Flag for Germany Past Weather in Ratingen, North Rhine-Westphalia, Germany — Yesterday and Last 2 Weeks

Now
70 °F

Sunny.


Feels Like: 70 °F
Forecast: 64 / 75 °F
Wind: 16 mph from Southwest

Location: Duesseldorf

Current Time: Jul 28, 2017 at 6:56:27 pm

Latest Report: Jul 28, 2017 at 6:20 pm


Visibility: 10 mi

Pressure: 29.92 "Hg

Humidity: 53%

Dew Point: 52 °F

Location of RatingenLocation

Past Weather in Ratingen — Graph

°F

Ratingen Temperature Yesterday

Maximum temperature yesterday: 70 °F (at 12:20 am)
Minimum temperature yesterday: 59 °F (at 11:50 pm)
Average temperature yesterday: 66 °F

High & Low Weather Summary for the Past Weeks

 TemperatureHumidityPressure
High90 °F (Jul 19, 1:50 pm)100% (Jul 20, 5:50 am)30.21 "Hg (Jul 20, 5:50 am)
Low50 °F (Jul 14, 3:50 am)37% (Jul 18, 3:50 pm)29.74 "Hg (Jul 20, 3:20 am)
Average66 °F71%29.93 "Hg
* Reported Jul 13 5:20 pm — Jul 28 5:50 pm, Ratingen. Weather by CustomWeather, © 2017

Note: Actual official high and low records may vary slightly from our data, if they occured in-between our weather recording intervals... More about our weather records

Advertising

Ratingen Weather History for the Previous 24 Hours

Scroll right to see more
 ConditionsComfort  
Time TempWeatherWind HumidityBarometerVisibility
5:50 pm
Fri, Jul 28
70 °FSunny.18 mph50%29.89 "Hg10 mi
5:20 pm72 °FPartly sunny.17 mph50%29.89 "HgN/A
4:50 pm70 °FPartly sunny.14 mph53%29.89 "HgN/A
4:20 pm70 °FPartly sunny.16 mph53%29.92 "HgN/A
3:50 pm70 °FBroken clouds.20 mph53%29.89 "HgN/A
3:20 pm70 °FBroken clouds.16 mph53%29.89 "HgN/A
2:53 pm68 °FScattered clouds.22 mph56%29.89 "HgN/A
2:25 pm70 °FScattered clouds.20 mph53%29.89 "HgN/A
2:20 pm72 °FScattered clouds.21 mph50%29.89 "HgN/A
1:50 pm68 °FBroken clouds.18 mph56%29.89 "HgN/A
1:20 pm68 °FPartly sunny.17 mph56%29.89 "HgN/A
12:50 pm66 °FBroken clouds.18 mph60%29.89 "HgN/A
12:20 pm68 °FScattered clouds.18 mph60%29.89 "HgN/A
11:50 am66 °FScattered clouds.17 mph64%29.89 "HgN/A
11:20 am66 °FScattered clouds.18 mph60%29.89 "HgN/A
10:50 am64 °FScattered clouds.17 mph64%29.89 "HgN/A
10:20 am64 °FScattered clouds.20 mph64%29.89 "HgN/A
9:50 am63 °FScattered clouds.14 mph73%29.86 "HgN/A
9:20 am63 °FScattered clouds.14 mph73%29.86 "HgN/A
8:50 am61 °FPartly sunny.16 mph77%29.86 "HgN/A
8:20 am61 °FScattered clouds.15 mph77%29.83 "HgN/A
7:50 am61 °FPassing clouds.15 mph77%29.83 "HgN/A
7:20 am59 °FPassing clouds.13 mph82%29.83 "HgN/A
6:50 am57 °FSunny.12 mph82%29.83 "Hg10 mi
6:20 am57 °FSunny.10 mph82%29.83 "Hg10 mi
5:50 am55 °FSunny.12 mph82%29.83 "Hg10 mi
5:20 am55 °FPassing clouds.10 mph82%29.83 "HgN/A
4:50 am55 °FClear.10 mph82%29.80 "Hg10 mi
4:20 am55 °FClear.10 mph82%29.80 "Hg10 mi
3:50 am55 °FClear.8 mph82%29.80 "Hg10 mi
3:20 am59 °FClear.8 mph77%29.80 "Hg10 mi
2:50 am61 °FClear.9 mph77%29.80 "Hg10 mi
2:20 am61 °FClear.9 mph77%29.80 "Hg10 mi
1:50 am61 °FScattered showers. Passing clouds.8 mph83%29.80 "HgN/A
1:20 am63 °FSprinkles. Passing clouds.9 mph73%29.77 "HgN/A
12:50 am61 °FClear.6 mph83%29.77 "Hg10 mi
12:20 am61 °FClear.1 mph83%29.77 "Hg10 mi
11:50 pm
Thu, Jul 27
59 °FClear.1 mph88%29.77 "Hg10 mi
11:20 pm61 °FClear.2 mph88%29.77 "Hg10 mi
10:50 pm63 °FClear.1 mph83%29.74 "Hg10 mi
10:20 pm61 °FClear.1 mph83%29.74 "Hg10 mi
9:50 pm63 °FPassing clouds.1 mph77%29.74 "HgN/A
9:20 pm64 °FPartly sunny.2 mph68%29.74 "HgN/A
8:50 pm66 °FScattered clouds.2 mph64%29.74 "HgN/A
8:20 pm68 °FScattered clouds.6 mph56%29.74 "HgN/A
7:50 pm70 °FScattered clouds.9 mph53%29.74 "HgN/A
7:20 pm70 °FPartly sunny.9 mph53%29.74 "HgN/A
6:50 pm70 °FPartly sunny.8 mph57%29.74 "HgN/A
6:20 pm70 °FBroken clouds.8 mph57%29.74 "HgN/A
Weather by CustomWeather, © 2017

See weather overviewHow to use our weather pages